Tracking 33203 objects as of 16-Feb-2026
HD Live streaming from Space Station
objects crossing your sky now

QIANFAN-70

Track QIANFAN-70 now!
10-day predictions
QIANFAN-70 is classified as:


NORAD ID: 62800
Int'l Code: 2025-016R
Perigee: 1,063.1 km
Apogee: 1,088.4 km
Inclination: 89.0 °
Period: 106.6 minutes
Semi major axis: 7446 km
RCS: Unknown
Launch date: January 23, 2025
Source: People's Republic of China (PRC)
Launch site: Taiyaun Space Center, China (TSC)
Your satellite tracking list
Your tracking list is empty




NASA's NSSDC Master Catalog

Two Line Element Set (TLE):
1 62800U 25016R   26046.89041005  .00000078  00000-0  10115-3 0  9991
2 62800  88.9715  96.3728 0016973 142.2031 218.0315 13.50995648 56034
Source of the keplerian elements: AFSPC